User: anonymous   Login
Location: Unspecified
(0.0000°N, 0.0000°E)
Time: 05:48:37
(UTC+02:00)
Language:

H-2A R/B - Orbit

View from above orbital plane
View from above orbital plane
View from above satellite
View from above satellite

Ground track
Ground track

The orbit data is extracted from the following two-line orbital elements,

1 28932U 06002B   16180.46458147  .00000375  00000-0  41514-4 0  9991
2 28932  98.2140  83.1944 0091603  30.9688  77.3749 14.90927320565091
Epoch (UTC): 28 June 2016 11:08:59
Eccentricity: 0.0091603
inclination: 98.2140°
perigee height: 531 km
apogee height: 659 km
right ascension of ascending node: 83.1944°
argument of perigee: 30.9688°
revolutions per day: 14.90927320
mean anomaly at epoch: 77.3749°
orbit number at epoch: 56509

The dashed part of the orbit path shows where the satellite is in the earth's shadow,  

DLR